This is the latest recevied weather packets stored in our database for station/object WX2NJ. If no packets are shown the sender has not sent any weather packets the latest 10 day(s).
| Time | Temp. | Humidity | Pressure | Rain* | Wind** | Luminosity | Snow |
|---|---|---|---|---|---|---|---|
| 1777759218 | 12.78° C | 73% | 1013.8 hPa | 0 mm | - | 83 W/m² | - |
| 1777758915 | 12.78° C | 72% | 1013.8 hPa | 0 mm | - | 83 W/m² | - |
| 1777758612 | 12.78° C | 72% | 1013.8 hPa | 0 mm | - | 81 W/m² | - |
| 1777758309 | 12.78° C | 72% | 1013.7 hPa | 0 mm | - | 84 W/m² | - |
| 1777758007 | 13.33° C | 72% | 1013.8 hPa | 0 mm | - | 82 W/m² | - |
| 1777757703 | 13.33° C | 72% | 1013.9 hPa | 0 mm | - | 72 W/m² | - |
| 1777757401 | 12.78° C | 71% | 1014 hPa | 0 mm | - | 88 W/m² | - |
| 1777757099 | 13.33° C | 71% | 1013.8 hPa | 0 mm | - | 121 W/m² | - |
| 1777756796 | 12.78° C | 71% | 1013.6 hPa | 0 mm | - | 133 W/m² | - |
| 1777756492 | 12.78° C | 73% | 1013.7 hPa | 0 mm | - | 137 W/m² | - |
| 1777756190 | 12.78° C | 72% | 1013.7 hPa | 0 mm | - | 111 W/m² | - |
| 1777755886 | 12.78° C | 72% | 1013.6 hPa | 0 mm | - | 116 W/m² | - |
| 1777755583 | 12.78° C | 72% | 1013.4 hPa | 0 mm | - | 132 W/m² | - |
| 1777755279 | 12.78° C | 72% | 1013.5 hPa | 0 mm | - | 146 W/m² | - |
| 1777754977 | 13.33° C | 72% | 1013.5 hPa | 0 mm | - | 128 W/m² | - |
| 1777754674 | 12.78° C | 71% | 1013.4 hPa | 0 mm | - | 127 W/m² | - |
| 1777754372 | 12.78° C | 71% | 1013.3 hPa | 0 mm | - | 128 W/m² | - |
| 1777754069 | 12.78° C | 71% | 1013.5 hPa | 0 mm | - | 142 W/m² | - |
| 1777753765 | 12.78° C | 71% | 1013.6 hPa | 0 mm | - | 111 W/m² | - |
| 1777753462 | 13.33° C | 71% | 1013.7 hPa | 0 mm | - | 69 W/m² | - |
| 1777753160 | 13.33° C | 70% | 1013.6 hPa | 0 mm | - | 77 W/m² | - |
| 1777752855 | 13.33° C | 69% | 1013.5 hPa | 0 mm | - | 100 W/m² | - |
| 1777752553 | 13.89° C | 69% | 1013.6 hPa | 0 mm | - | 102 W/m² | - |
| 1777752248 | 13.89° C | 69% | 1013.6 hPa | 0 mm | - | 141 W/m² | - |
| 1777751946 | 13.89° C | 69% | 1013.8 hPa | 0 mm | - | 148 W/m² | - |
* Rain latest hour (hover to see other rain measurements)
** Current wind speed in m/s (hover to see current wind gust speed)